Location: Boiro
(42.6475°N, 8.8834°W)
Time: 11:49:58
(UTC+01:00)

Vanguard 1 Rocket - Pass Details

Date: 01 December 2021
Orbit: 651 x 4224 km, 34.3° (Epoch: 21 January)

Event Time Altitude Azimuth Distance (km) Brightness Sun altitude
Exits shadow 05:54:55 37° 233° (SW) 3,460 9.9 -30.8°
Maximum altitude 06:02:31 64° 169° (SSE) 3,311 10.1 -29.4°
Drops below altitude 10° 06:26:16 10° 95° (E) 7,362 13.1 -25.1°
Sets 06:32:24 0° 94° (E) 8,471 13.8 -24.0°
